{"data":{"norad_id":56352,"epoch":"2026-05-24T23:53:33.921600Z","epoch_age_seconds":89526,"freshness":"FRESH","line1":"1 56352U 23058AM  26144.99553150 -.00002777  00000+0 -18853-3 0  9995","line2":"2 56352  97.4516 144.9246 0002825 116.1820 243.9698 15.05633607169600","mean_motion":15.05633607,"eccentricity":0.0002825,"inclination_deg":97.4516,"raan_deg":144.9246,"arg_perigee_deg":116.182,"mean_anomaly_deg":243.9698,"bstar":-0.00018853,"rev_number":16960,"period_min":95.640798219776,"perigee_km":547.60436358877,"apogee_km":551.51851320647,"semimajor_km":6927.6984383976,"source":"CELESTRAK","updated_at":"2026-05-25T13:38:18.007482Z"}}